sat.trackr.live / text

‹ back to catalog

NUSAT-49 (KLARA DAN VO*)

NORAD 60500 · 2024-149AJ

PAYLOAD ACTIVE UNKNOWN

§ Identity

Operator
Country
ARGN
Launch date
2024-08-16
Launch site
AFWTR
Launch vehicle
Mass (kg)
RCS (m²)

External: N2YO · Heavens-Above · Gunter

§ Orbital elements

Epoch: 2026-05-25T04:18:45.815616Z

Period
94.11 min
Inclination
97.3775°
Eccentricity
0.0003022
Mean motion
15.30053826 rev/d
Perigee alt
473.6 km
Apogee alt
477.7 km
Semi-major
6,853.8 km
B*
3.1154e-4
RAAN
226.6243°
Arg perigee
58.8407°
Mean anomaly
301.3130°
Rev number
9,861

§ Raw data

NUSAT-49 (KLARA DAN VO*)1 60500U 24149AJ  26145.17969694  .00008989  00000+0  31154-3 0  99902 60500  97.3775 226.6243 0003022  58.8407 301.3130 15.30053826 98613

JSON: /api/v1/satellites/60500 · /tle

For live sub-satellite position, see the globe view (requires WebGL).

§ Visibility from observer

Set your observer location to see the next 7 days of passes ≥ 10°. The values pass through the URL so the page stays shareable.

No JS? Fill the form by hand. The geolocation button needs JavaScript.